Ana Sayfa
METAR-TAF:

METAR-TAF

Havaalanları :

York Municipal Airport

York, Nebraska, Amerika Birleşik Devletleri

Enlem: 40-53-48N, Boylam: 097-37-22W, yükseklik: 509 m

Güncel hava durumu gözlemi

Rapor saat 11:15 UTC de 33 dakika önce yapıldı.
Rüzgar güneydan 13 kt ve 19 kt'a kadar ani rüzgarlar
Sıcaklık 20°C
Nem 94%
Basınç 1005 hPa
Görüş mesafesi: 16.1 km
Açık gökyüzü

METAR: KJYR 161115Z AUTO 17013G19KT 10SM CLR 20/19 A2969 RMK AO2

Saat: 06:48 (11:48 UTC)


TAF: eksik

4.000'den fazla havaalanı için hava durumu gözlemleri ve tahminleri (METAR ve TAF raporları).

Kullanılabilir istasyonlar harita üzerinde sarı ve kırmızı noktalarla gösterilir.

İstasyonun adını görmek için fareyi noktanın üzerinde gezdirin.

Sonrasında hava gözlem ve tahminlerini görmek için tıklayın.

Haritayı değiştirmek için: yaklaştırmak için siyah artı işaretli yeşil düğmeye ve uzaklaştırmak için de eksi işaretli düğmeye hızla tıklayın; bitişik haritalar için yeşil okları kullanın.


METAR-TAF: